Showing default

OPS 1117 (TRANSIT 12), 2119

Orbit data source: Space-Track

OPS 1117 (TRANSIT 12), 2119 is a payload satellite owned by USN BuWeps (US) in LEO that was launched on Sat, 26 Mar 1966 UTC via an SCOUT A launch vehicle from the Air Force Western Test Range (AFWTR). Payloads include a variety of satellites, spacecraft, and rockets equipped with specific instruments for various scientific and technological missions. These include communications satellites like Starlink; space stations such as the ISS; scientific satellites like the Hubble; Earth observation satellites from companies like Planet Labs, Umbra, and HawkEye 360; GPS; miniature CubeSats for education and research; and military/defense satellites.

Loading next visibility...
OPS 1117 (TRANSIT 12) details
Identifier
2119, 1966-024A
Orbit
LEO
Last TLE update19 hours ago
Origin
Flag of USUSN BuWeps (US)
ManufacturerAPL
MissionDefense Navigation
Bus & MotorTRANSIT 5, Unknown motor
Mass51 kg wet, 51 kg dry
Launch date (UTC)
1966-03-26 (59 years ago)
Launch vehicle
SCOUT A
Launch site
Air Force Western Test Range (AFWTR)
Object type
Payload
Rocket body
Debris
Shape & HBROct Cyl + 4 Pan + 1 Rod, Unknown HBR
Radar Cross Section7.565 m², Large (>1 m²)

Expand to show TLE details & history

TLE from 19 hours ago
0 OPS 1117 (TRANSIT 12)
1 02119U 66024A   24355.71314375  .00000423  00000-0  40011-3 0  9999
2 02119  89.6243 110.7507 0145053 246.1289 112.4620 13.75157809940485
Epoch: 2024-12-20T17:06Z
Definitive object data (Epoch: 2024-12-20T17:06:55.62Z)
Latitude0.00003°
Longitude124.24424°
Altitude1,026.207 km
Speed7.318 km/s
True Right ascension07h 23m 00s
True Declination0° 00' 00"
Sunlit
Object was in full shadow at TLE epoch
Visualization TLE readout
Latitude-32.8051°
Longitude-55.54535°
Altitude901.826 km
Speed7.446 km/s
Apparent Right ascension20h 49m 50s
Apparent Declination-38° 29' 49"
Sunlit
Object is in daylight
Visualization observer readout
Local Sidereal Time10:38:54
Azimuth94.948° ESE
Elevation-68.906°
Doppler factor1
Orbital elements
Apogee altitude1,084.829 km
Perigee altitude871.42 km
Semi-major axis7,356.261 km
Eccentricity0.0145053
Inclination89.6243°
RAAN110.7507°
Arg. of periapsis246.1289°
True anomaly113.98733°
Mean anomaly112.462°
Eccentric anomaly113.22574°
Mean motion3.43999 °/min
BSTAR0.00040011
Orbital period104.65 mins
Loading maneuver chart data...
Loading historical data...
Loading historical data...
Loading historical data...
Loading historical data...
Loading historical data...
Loading historical data...
Loading historical data...

OPS 1117 (TRANSIT 12) Visibility forecast

Observer location: undefined°, undefined

Span
Click to sort rows by Start time (UTC) header in descending order
Start Az.
Max El. time (UTC)
Max El. Az.
Max El.
End time (UTC)
End Az.
12 mins2024-12-21 19:54:14.391Z7.984° NNE2024-12-21 20:00:14.391Z86.971° E42.301°2024-12-21 20:06:14.391Z171.298° S
6 mins2024-12-21 21:41:14.391Z319.213° NNW2024-12-21 21:44:14.391Z286.709° WNW17.875°2024-12-21 21:47:14.391Z254.145° W
11 mins2024-12-22 07:39:14.391Z149.308° SSE2024-12-22 07:44:14.391Z77.955° E37.36°2024-12-22 07:50:14.391Z9.953° NNE
9 mins2024-12-22 09:25:14.391Z235.092° WSW2024-12-22 09:29:14.391Z283.459° WNW24.345°2024-12-22 09:34:14.391Z333.523° NNW
|